• In Deutschland
  • Länderverzeichnis
  • Für 7 Tage
  • Wassertemperatur
  • Satellitenkarten
  • Wetterkarte
  • Widgets
  • user-avatar
    Anmelden

    Stündliche Wetter Zambrów

    Heute, 24 September, Montag

    Zeit Temperatur Niederschläge Wind Luftdruck Luftfeuchtigkeit
    00:00 +9°C° 1.5 mm 3 m/S 740 mmHg 94%
    01:00 +8°C° 0 mm 4 m/S 738 mmHg 94%
    02:00 +8°C° 2.2 mm 5 m/S 738 mmHg 93%
    03:00 +8°C° 2.2 mm 7 m/S 738 mmHg 91%
    04:00 +6°C° 2.2 mm 8 m/S 738 mmHg 90%
    05:00 +6°C° 0.7 mm 8 m/S 739 mmHg 90%
    06:00 +6°C° 0.7 mm 7 m/S 740 mmHg 89%
    07:00 +6°C° 0 mm 7 m/S 741 mmHg 87%
    08:00 +7°C° 0.1 mm 8 m/S 742 mmHg 82%
    09:00 +9°C° 0.1 mm 8 m/S 743 mmHg 76%
    10:00 +11°C° 0.1 mm 9 m/S 744 mmHg 71%
    11:00 +11°C° 0.3 mm 9 m/S 744 mmHg 68%
    12:00 +11°C° 0.3 mm 9 m/S 745 mmHg 65%
    13:00 +12°C° 0 mm 8 m/S 745 mmHg 61%
    14:00 +11°C° 0.1 mm 8 m/S 746 mmHg 62%
    15:00 +11°C° 0.1 mm 8 m/S 746 mmHg 63%
    16:00 +10°C° 0.1 mm 7 m/S 747 mmHg 64%
    17:00 +9°C° 0 mm 7 m/S 748 mmHg 67%
    18:00 +8°C° 0 mm 6 m/S 748 mmHg 69%
    19:00 +7°C° 0 mm 6 m/S 749 mmHg 72%
    20:00 +6°C° 0 mm 5 m/S 750 mmHg 73%
    21:00 +6°C° 0 mm 5 m/S 750 mmHg 75%
    22:00 +5°C° 0 mm 5 m/S 751 mmHg 76%
    23:00 +5°C° 0 mm 5 m/S 751 mmHg 76%

    Morgen, 25 September, Dienstag

    Zeit Temperatur Niederschläge Wind Luftdruck Luftfeuchtigkeit
    00:00 +5°C° 0 mm 5 m/S 752 mmHg 76%
    01:00 +5°C° 0 mm 5 m/S 752 mmHg 76%
    02:00 +5°C° 0 mm 5 m/S 753 mmHg 77%
    03:00 +5°C° 0 mm 5 m/S 753 mmHg 77%
    04:00 +3°C° 0 mm 5 m/S 754 mmHg 78%
    05:00 +5°C° 0 mm 5 m/S 754 mmHg 76%
    06:00 +6°C° 0 mm 5 m/S 755 mmHg 75%
    07:00 +5°C° 0 mm 6 m/S 755 mmHg 73%
    08:00 +7°C° 0.1 mm 6 m/S 756 mmHg 68%
    09:00 +9°C° 0.1 mm 6 m/S 756 mmHg 62%
    10:00 +10°C° 0.1 mm 7 m/S 757 mmHg 57%
    11:00 +10°C° 0.1 mm 7 m/S 757 mmHg 55%
    12:00 +10°C° 0.1 mm 7 m/S 758 mmHg 54%
    13:00 +11°C° 0.1 mm 7 m/S 758 mmHg 52%
    14:00 +10°C° 0.1 mm 7 m/S 758 mmHg 53%
    15:00 +10°C° 0.1 mm 7 m/S 759 mmHg 54%
    16:00 +10°C° 0.1 mm 6 m/S 759 mmHg 55%
    17:00 +8°C° 0 mm 6 m/S 760 mmHg 59%
    18:00 +7°C° 0 mm 5 m/S 761 mmHg 64%
    19:00 +6°C° 0 mm 4 m/S 761 mmHg 68%
    20:00 +5°C° 0 mm 4 m/S 762 mmHg 72%
    21:00 +5°C° 0 mm 3 m/S 762 mmHg 75%
    22:00 +4°C° 0 mm 3 m/S 763 mmHg 78%
    23:00 +4°C° 0 mm 3 m/S 763 mmHg 80%

    übermorgen, 26 September, Mittwoch

    Zeit Temperatur Niederschläge Wind Luftdruck Luftfeuchtigkeit
    00:00 +3°C° 0 mm 3 m/S 763 mmHg 81%
    01:00 +3°C° 0 mm 3 m/S 763 mmHg 83%
    02:00 +3°C° 0 mm 3 m/S 763 mmHg 82%
    03:00 +2°C° 0 mm 3 m/S 763 mmHg 81%
    04:00 +2°C° 0 mm 3 m/S 763 mmHg 79%
    05:00 +3°C° 0 mm 3 m/S 763 mmHg 74%
    06:00 +4°C° 0 mm 3 m/S 763 mmHg 69%
    07:00 +5°C° 0 mm 4 m/S 764 mmHg 63%
    08:00 +7°C° 0 mm 4 m/S 763 mmHg 60%
    09:00 +9°C° 0 mm 5 m/S 763 mmHg 57%
    10:00 +10°C° 0 mm 6 m/S 763 mmHg 54%
    11:00 +11°C° 0 mm 6 m/S 762 mmHg 52%
    12:00 +13°C° 0 mm 6 m/S 761 mmHg 50%
    13:00 +12°C° 0 mm 7 m/S 761 mmHg 48%
    14:00 +13°C° 0.1 mm 6 m/S 760 mmHg 52%
    15:00 +11°C° 0.1 mm 6 m/S 760 mmHg 56%
    16:00 +10°C° 0.1 mm 5 m/S 759 mmHg 60%
    17:00 +10°C° 0.1 mm 6 m/S 759 mmHg 64%
    18:00 +9°C° 0.1 mm 6 m/S 758 mmHg 67%
    19:00 +8°C° 0.1 mm 7 m/S 758 mmHg 71%
    20:00 +8°C° 0.1 mm 7 m/S 758 mmHg 70%
    21:00 +9°C° 0.1 mm 7 m/S 757 mmHg 69%
    22:00 +9°C° 0.1 mm 7 m/S 756 mmHg 68%
    23:00 +9°C° 0.1 mm 7 m/S 756 mmHg 66%

    27 September, Donnerstag

    Zeit Temperatur Niederschläge Wind Luftdruck Luftfeuchtigkeit
    00:00 +9°C° 0.1 mm 7 m/S 755 mmHg 63%
    01:00 +10°C° 0.1 mm 7 m/S 755 mmHg 61%
    02:00 +10°C° 0 mm 7 m/S 754 mmHg 61%
    03:00 +10°C° 0 mm 7 m/S 754 mmHg 62%
    04:00 +10°C° 0 mm 7 m/S 753 mmHg 63%
    05:00 +10°C° 0 mm 7 m/S 753 mmHg 66%
    06:00 +10°C° 0 mm 8 m/S 753 mmHg 68%
    07:00 +11°C° 0 mm 8 m/S 753 mmHg 71%
    08:00 +12°C° 0.1 mm 7 m/S 753 mmHg 73%
    09:00 +12°C° 0.1 mm 7 m/S 754 mmHg 74%
    10:00 +14°C° 0.1 mm 7 m/S 754 mmHg 76%
    11:00 +15°C° 0.1 mm 7 m/S 754 mmHg 76%
    12:00 +15°C° 0.1 mm 7 m/S 754 mmHg 76%
    13:00 +16°C° 0.1 mm 7 m/S 754 mmHg 76%
    14:00 +16°C° 0 mm 6 m/S 754 mmHg 76%
    15:00 +16°C° 0 mm 6 m/S 754 mmHg 76%
    16:00 +16°C° 0 mm 5 m/S 754 mmHg 76%
    17:00 +16°C° 0.1 mm 5 m/S 754 mmHg 80%
    18:00 +15°C° 0.1 mm 5 m/S 754 mmHg 83%
    19:00 +14°C° 0.1 mm 4 m/S 754 mmHg 86%
    20:00 +14°C° 0 mm 4 m/S 754 mmHg 89%
    21:00 +13°C° 0 mm 4 m/S 754 mmHg 91%
    22:00 +12°C° 0 mm 4 m/S 753 mmHg 93%
    23:00 +12°C° 0 mm 4 m/S 753 mmHg 93%

    28 September, Freitag

    Zeit Temperatur Niederschläge Wind Luftdruck Luftfeuchtigkeit
    00:00 +12°C° 0 mm 5 m/S 753 mmHg 92%
    01:00 +13°C° 0 mm 5 m/S 752 mmHg 92%
    02:00 +13°C° 0 mm 5 m/S 752 mmHg 91%
    03:00 +13°C° 0 mm 6 m/S 751 mmHg 91%
    04:00 +13°C° 0 mm 6 m/S 751 mmHg 90%
    05:00 +13°C° 0.3 mm 6 m/S 750 mmHg 89%
    06:00 +14°C° 0.3 mm 6 m/S 750 mmHg 88%
    07:00 +14°C° 0.3 mm 7 m/S 750 mmHg 87%
    08:00 +14°C° 0.2 mm 7 m/S 750 mmHg 84%
    09:00 +15°C° 0.2 mm 7 m/S 751 mmHg 81%
    10:00 +15°C° 0.2 mm 6 m/S 751 mmHg 78%
    11:00 +15°C° 0 mm 6 m/S 751 mmHg 72%
    12:00 +15°C° 0 mm 6 m/S 751 mmHg 67%
    13:00 +15°C° 0 mm 5 m/S 751 mmHg 61%
    14:00 +15°C° 0 mm 5 m/S 751 mmHg 59%
    15:00 +15°C° 0 mm 4 m/S 751 mmHg 57%
    16:00 +16°C° 0 mm 3 m/S 752 mmHg 54%
    17:00 +13°C° 0 mm 3 m/S 752 mmHg 59%
    18:00 +12°C° 0 mm 2 m/S 752 mmHg 64%
    19:00 +9°C° 0 mm 2 m/S 752 mmHg 68%
    20:00 +9°C° 0 mm 2 m/S 752 mmHg 72%
    21:00 +8°C° 0 mm 2 m/S 752 mmHg 76%
    22:00 +8°C° 0 mm 2 m/S 753 mmHg 80%
    23:00 +8°C° 0 mm 2 m/S 753 mmHg 81%

    29 September, Samstag

    Zeit Temperatur Niederschläge Wind Luftdruck Luftfeuchtigkeit
    00:00 +8°C° 0 mm 2 m/S 753 mmHg 81%
    01:00 +9°C° 0 mm 1 m/S 753 mmHg 82%
    02:00 +9°C° 0 mm 1 m/S 753 mmHg 83%
    03:00 +8°C° 0 mm 2 m/S 753 mmHg 84%
    04:00 +8°C° 0 mm 2 m/S 753 mmHg 84%
    05:00 +8°C° 0 mm 2 m/S 753 mmHg 84%
    06:00 +8°C° 0 mm 2 m/S 754 mmHg 83%
    07:00 +8°C° 0 mm 2 m/S 754 mmHg 82%
    08:00 +9°C° 0 mm 3 m/S 754 mmHg 73%
    09:00 +11°C° 0 mm 3 m/S 755 mmHg 65%
    10:00 +12°C° 0 mm 3 m/S 755 mmHg 56%
    11:00 +13°C° 0 mm 3 m/S 755 mmHg 51%
    12:00 +13°C° 0 mm 3 m/S 755 mmHg 47%
    13:00 +14°C° 0 mm 3 m/S 755 mmHg 43%
    14:00 +13°C° 0 mm 3 m/S 755 mmHg 45%
    15:00 +13°C° 0 mm 3 m/S 755 mmHg 47%
    16:00 +13°C° 0 mm 3 m/S 755 mmHg 49%
    17:00 +12°C° 0 mm 2 m/S 756 mmHg 53%
    18:00 +9°C° 0 mm 2 m/S 756 mmHg 58%
    19:00 +8°C° 0 mm 2 m/S 756 mmHg 63%
    20:00 +7°C° 0 mm 2 m/S 756 mmHg 64%
    21:00 +7°C° 0 mm 2 m/S 756 mmHg 66%
    22:00 +6°C° 0 mm 2 m/S 756 mmHg 68%
    23:00 +6°C° 0 mm 2 m/S 756 mmHg 69%
    Mehr zeigen